N421AS KSEZ-KTEX

Flight info

Callsign N421AS
Flight time 0h 58m
Altitude 39000
Route YOOPR CEZ HAVWU ETL
Aircraft CL60/M-SBDE1E2E3FGHIJ1J4J5J7M3RWXYZ/LB1V1D1

Departure

Time 2026-05-05 20:37
Airport Sedona Airport (KSEZ)

Arrival

Time 2026-05-05 21:36
Airport Telluride Regional Airport (KTEX)
Time Latitude Longitude Altitude Speed Heading
2026-05-05 20:08 34.84988 -111.78892 4812 ft 0 kts 237°
2026-05-05 20:32 34.84988 -111.78893 4812 ft 0 kts 237°
2026-05-05 20:32 34.84982 -111.78902 4811 ft 0 kts 229°
2026-05-05 20:33 34.84952 -111.78909 4811 ft 6 kts 202°
2026-05-05 20:33 34.84922 -111.78890 4811 ft 6 kts 58°
2026-05-05 20:33 34.84974 -111.78825 4815 ft 13 kts 46°
2026-05-05 20:34 34.85033 -111.78750 4820 ft 10 kts 46°
2026-05-05 20:34 34.85083 -111.78686 4822 ft 11 kts 46°
2026-05-05 20:34 34.85144 -111.78611 4827 ft 11 kts 46°
2026-05-05 20:34 34.85198 -111.78545 4829 ft 10 kts 45°
2026-05-05 20:35 34.85245 -111.78484 4833 ft 10 kts 46°
2026-05-05 20:35 34.85304 -111.78411 4836 ft 12 kts 45°
2026-05-05 20:35 34.85353 -111.78349 4838 ft 9 kts 50°
2026-05-05 20:35 34.85360 -111.78308 4839 ft 2 kts 107°
2026-05-05 20:36 34.85358 -111.78302 4840 ft 0 kts 114°
2026-05-05 20:36 34.85325 -111.78283 4840 ft 9 kts 180°
2026-05-05 20:36 34.85301 -111.78297 4840 ft 0 kts 225°
2026-05-05 20:37 34.85228 -111.78387 4837 ft 57 kts 224°
2026-05-05 20:37 34.84932 -111.78757 4818 ft 121 kts 224°
2026-05-05 20:37 34.83915 -111.80065 5245 ft 181 kts 224°
2026-05-05 20:37 34.83033 -111.81211 6033 ft 197 kts 219°
2026-05-05 20:38 34.82017 -111.82430 6902 ft 217 kts 221°
2026-05-05 20:38 34.80906 -111.83752 7860 ft 235 kts 222°
2026-05-05 20:38 34.79738 -111.85158 8864 ft 247 kts 224°
2026-05-05 20:38 34.78469 -111.86599 10001 ft 254 kts 215°
2026-05-05 20:39 34.76812 -111.87425 10878 ft 273 kts 187°
2026-05-05 20:39 34.74861 -111.87301 11719 ft 289 kts 175°
2026-05-05 20:39 34.72844 -111.86986 12546 ft 291 kts 172°
2026-05-05 20:39 34.70882 -111.86208 13430 ft 307 kts 154°
2026-05-05 20:40 34.69228 -111.84611 14736 ft 312 kts 134°
2026-05-05 20:40 34.68111 -111.82369 15932 ft 320 kts 115°
2026-05-05 20:40 34.67336 -111.79810 16991 ft 327 kts 112°
2026-05-05 20:40 34.66826 -111.77101 17991 ft 337 kts 97°
2026-05-05 20:41 34.66998 -111.74250 18916 ft 348 kts 77°
2026-05-05 20:41 34.67952 -111.71551 19849 ft 356 kts 57°
2026-05-05 20:41 34.69672 -111.69381 20680 ft 362 kts 34°
2026-05-05 20:41 34.71782 -111.67606 21524 ft 370 kts 39°
2026-05-05 20:42 34.73570 -111.65342 22312 ft 377 kts 49°
2026-05-05 20:42 34.75299 -111.62927 23129 ft 383 kts 48°
2026-05-05 20:42 34.77050 -111.60496 24047 ft 384 kts 48°
2026-05-05 20:42 34.78845 -111.58017 24541 ft 396 kts 48°
2026-05-05 20:43 34.80708 -111.55460 24958 ft 410 kts 48°
2026-05-05 20:43 34.82620 -111.52857 25474 ft 419 kts 47°
2026-05-05 20:43 34.84608 -111.50177 26017 ft 427 kts 47°
2026-05-05 20:43 34.86614 -111.47500 26538 ft 435 kts 46°
2026-05-05 20:44 34.88707 -111.44773 26961 ft 444 kts 45°
2026-05-05 20:44 34.90835 -111.42011 27389 ft 453 kts 46°
2026-05-05 20:44 34.93031 -111.39161 27708 ft 465 kts 46°
2026-05-05 20:44 34.95280 -111.36238 28125 ft 473 kts 45°
2026-05-05 20:45 34.99827 -111.30326 28877 ft 489 kts 46°
2026-05-05 20:45 35.02153 -111.27299 29266 ft 495 kts 46°
2026-05-05 20:45 35.04529 -111.24204 29626 ft 503 kts 46°
2026-05-05 20:46 35.06928 -111.21075 30049 ft 508 kts 45°
2026-05-05 20:46 35.09364 -111.17897 30613 ft 510 kts 46°
2026-05-05 20:46 35.11716 -111.14822 31109 ft 511 kts 45°
2026-05-05 20:46 35.14120 -111.11678 31555 ft 514 kts 46°
2026-05-05 20:47 35.16566 -111.08477 31910 ft 518 kts 46°
2026-05-05 20:47 35.19051 -111.05222 32371 ft 519 kts 46°
2026-05-05 20:47 35.21547 -111.01951 32740 ft 522 kts 46°
2026-05-05 20:47 35.24028 -110.98695 33055 ft 526 kts 46°
2026-05-05 20:48 35.26537 -110.95403 33334 ft 530 kts 46°
2026-05-05 20:48 35.29097 -110.92037 33670 ft 532 kts 46°
2026-05-05 20:48 35.31611 -110.88728 34116 ft 530 kts 46°
2026-05-05 20:48 35.34116 -110.85429 34686 ft 525 kts 46°
2026-05-05 20:49 35.36597 -110.82158 35221 ft 520 kts 46°
2026-05-05 20:49 35.39064 -110.78902 35844 ft 513 kts 45°
2026-05-05 20:49 35.41459 -110.75738 36419 ft 507 kts 46°
2026-05-05 20:49 35.43885 -110.72530 36893 ft 504 kts 45°
2026-05-05 20:50 35.46257 -110.69391 37196 ft 504 kts 46°
2026-05-05 20:50 35.48663 -110.66204 37579 ft 503 kts 45°
2026-05-05 20:50 35.51038 -110.63056 38024 ft 499 kts 46°
2026-05-05 20:50 35.53405 -110.59914 38321 ft 499 kts 46°
2026-05-05 20:51 35.55753 -110.56795 38631 ft 498 kts 45°
2026-05-05 20:51 35.58096 -110.53683 38945 ft 496 kts 46°
2026-05-05 20:51 35.62836 -110.47373 38965 ft 508 kts 46°
2026-05-05 20:52 35.67918 -110.41156 38990 ft 517 kts 37°
2026-05-05 20:52 35.73449 -110.35372 38958 ft 528 kts 37°
2026-05-05 20:53 35.79025 -110.29520 38963 ft 535 kts 39°
2026-05-05 20:53 35.84716 -110.23528 38979 ft 540 kts 38°
2026-05-05 20:54 35.90443 -110.17484 38991 ft 541 kts 38°
2026-05-05 20:54 35.96177 -110.11417 38994 ft 541 kts 38°
2026-05-05 20:55 36.01873 -110.05378 38993 ft 541 kts 39°
2026-05-05 20:55 36.07634 -109.99259 38996 ft 541 kts 38°
2026-05-05 20:56 36.13259 -109.93271 38995 ft 540 kts 38°
2026-05-05 20:56 36.18910 -109.87244 38976 ft 540 kts 39°
2026-05-05 20:57 36.24593 -109.81170 38987 ft 540 kts 39°
2026-05-05 20:57 36.30309 -109.75050 38985 ft 539 kts 38°
2026-05-05 20:58 36.35993 -109.68949 38986 ft 538 kts 39°
2026-05-05 20:58 36.41658 -109.62858 38975 ft 537 kts 39°
2026-05-05 20:59 36.47324 -109.56753 38974 ft 536 kts 39°
2026-05-05 20:59 36.52943 -109.50684 38970 ft 536 kts 38°
2026-05-05 21:00 36.58601 -109.44564 38955 ft 536 kts 39°
2026-05-05 21:00 36.64220 -109.38473 38962 ft 535 kts 38°
2026-05-05 21:01 36.69720 -109.32499 38983 ft 534 kts 39°
2026-05-05 21:01 36.75306 -109.26421 38961 ft 535 kts 38°
2026-05-05 21:02 36.80864 -109.20361 38967 ft 535 kts 39°
2026-05-05 21:02 36.86457 -109.14250 38949 ft 536 kts 39°
2026-05-05 21:03 36.92103 -109.08068 38925 ft 536 kts 39°
2026-05-05 21:03 36.94872 -109.05030 38489 ft 533 kts 38°
2026-05-05 21:03 36.97665 -109.01965 37854 ft 531 kts 38°
2026-05-05 21:04 37.00459 -108.98894 37196 ft 530 kts 38°
2026-05-05 21:04 37.03228 -108.95847 36503 ft 531 kts 38°
2026-05-05 21:04 37.05971 -108.92828 35823 ft 532 kts 39°
2026-05-05 21:04 37.08759 -108.89755 35132 ft 532 kts 38°
2026-05-05 21:05 37.11502 -108.86729 34442 ft 533 kts 39°
2026-05-05 21:05 37.14219 -108.83727 33728 ft 534 kts 38°
2026-05-05 21:05 37.17021 -108.80630 33084 ft 534 kts 39°
2026-05-05 21:05 37.19796 -108.77560 32314 ft 536 kts 38°
2026-05-05 21:06 37.22597 -108.74456 31590 ft 531 kts 39°
2026-05-05 21:06 37.25297 -108.71458 30901 ft 520 kts 38°
2026-05-05 21:06 37.27994 -108.68462 30317 ft 514 kts 39°
2026-05-05 21:06 37.30684 -108.65471 29494 ft 502 kts 39°
2026-05-05 21:07 37.33240 -108.62624 28925 ft 485 kts 39°
2026-05-05 21:07 37.35759 -108.59822 28276 ft 472 kts 38°
2026-05-05 21:07 37.38371 -108.57472 27671 ft 454 kts 25°
2026-05-05 21:07 37.41204 -108.55997 27070 ft 435 kts 11°
2026-05-05 21:08 37.44155 -108.55274 26494 ft 419 kts
2026-05-05 21:08 37.46990 -108.54787 25974 ft 410 kts
2026-05-05 21:08 37.49824 -108.54297 25398 ft 409 kts
2026-05-05 21:08 37.52628 -108.53811 24875 ft 405 kts
2026-05-05 21:09 37.55443 -108.53321 24363 ft 401 kts
2026-05-05 21:09 37.58180 -108.52845 23814 ft 397 kts
2026-05-05 21:09 37.60909 -108.52371 23256 ft 394 kts
2026-05-05 21:09 37.63620 -108.51898 22762 ft 388 kts
2026-05-05 21:10 37.66252 -108.51438 22240 ft 374 kts
2026-05-05 21:10 37.68796 -108.50993 21752 ft 362 kts
2026-05-05 21:10 37.71285 -108.50558 21308 ft 353 kts
2026-05-05 21:10 37.73734 -108.50131 20868 ft 357 kts
2026-05-05 21:11 37.76193 -108.49703 20336 ft 356 kts
2026-05-05 21:11 37.78648 -108.49274 19891 ft 351 kts
2026-05-05 21:11 37.81030 -108.48858 19421 ft 347 kts
2026-05-05 21:11 37.83447 -108.48435 18939 ft 344 kts
2026-05-05 21:12 37.85815 -108.48020 18513 ft 341 kts
2026-05-05 21:12 37.88159 -108.47610 18040 ft 340 kts
2026-05-05 21:12 37.90495 -108.47199 17614 ft 337 kts
2026-05-05 21:12 37.92810 -108.46793 17158 ft 334 kts
2026-05-05 21:13 37.95053 -108.46021 16659 ft 328 kts 23°
2026-05-05 21:13 37.96925 -108.44479 16222 ft 322 kts 41°
2026-05-05 21:13 37.98336 -108.42309 15747 ft 316 kts 59°
2026-05-05 21:13 37.99272 -108.39841 15275 ft 310 kts 67°
2026-05-05 21:14 38.00122 -108.37347 14925 ft 302 kts 66°
2026-05-05 21:14 38.00939 -108.34967 14515 ft 290 kts 67°
2026-05-05 21:14 38.01724 -108.32677 14132 ft 276 kts 68°
2026-05-05 21:14 38.02469 -108.30502 13792 ft 265 kts 68°
2026-05-05 21:15 38.03198 -108.28371 13471 ft 262 kts 68°
2026-05-05 21:15 38.03700 -108.26155 13142 ft 256 kts 88°
2026-05-05 21:15 38.03458 -108.24040 13068 ft 231 kts 111°
2026-05-05 21:15 38.02923 -108.22222 13035 ft 208 kts 116°
2026-05-05 21:16 38.02404 -108.20526 13038 ft 206 kts 116°
2026-05-05 21:16 38.01885 -108.18838 13051 ft 205 kts 116°
2026-05-05 21:16 38.01363 -108.17138 13059 ft 206 kts 116°
2026-05-05 21:16 38.00843 -108.15443 13054 ft 206 kts 116°
2026-05-05 21:17 38.00325 -108.13755 13047 ft 205 kts 116°
2026-05-05 21:17 37.99828 -108.12031 12860 ft 213 kts 112°
2026-05-05 21:17 37.99432 -108.10197 12515 ft 212 kts 108°
2026-05-05 21:17 37.99079 -108.08453 12168 ft 201 kts 108°
2026-05-05 21:18 37.98720 -108.06728 11879 ft 203 kts 108°
2026-05-05 21:18 37.98354 -108.04995 11537 ft 203 kts 108°
2026-05-05 21:18 37.97670 -108.03523 11524 ft 186 kts 144°
2026-05-05 21:18 37.96643 -108.02517 11617 ft 191 kts 150°
2026-05-05 21:19 37.95543 -108.01520 11601 ft 194 kts 150°
2026-05-05 21:19 37.94447 -108.00499 11588 ft 193 kts 149°
2026-05-05 21:19 37.93340 -107.99504 11572 ft 192 kts 150°
2026-05-05 21:19 37.92327 -107.98395 11559 ft 198 kts 131°
2026-05-05 21:20 37.91853 -107.96756 11574 ft 202 kts 106°
2026-05-05 21:20 37.91553 -107.94994 11585 ft 204 kts 104°
2026-05-05 21:20 37.91257 -107.93237 11591 ft 202 kts 105°
2026-05-05 21:20 37.90972 -107.91478 11583 ft 201 kts 102°
2026-05-05 21:21 37.90952 -107.89756 11539 ft 196 kts 79°
2026-05-05 21:21 37.91472 -107.88200 11273 ft 191 kts 52°
2026-05-05 21:21 37.92430 -107.87116 10784 ft 180 kts 24°
2026-05-05 21:21 37.93563 -107.86718 10298 ft 161 kts 352°
2026-05-05 21:22 37.94510 -107.87272 9837 ft 140 kts 307°
2026-05-05 21:22 37.94865 -107.88379 9393 ft 137 kts 279°
2026-05-05 21:22 37.95094 -107.89539 9522 ft 141 kts 284°
2026-05-05 21:22 37.95389 -107.90878 9914 ft 175 kts 285°
2026-05-05 21:23 37.95735 -107.92432 10607 ft 196 kts 284°
2026-05-05 21:23 37.96137 -107.94157 11196 ft 213 kts 285°
2026-05-05 21:23 37.96576 -107.96005 11502 ft 226 kts 285°
2026-05-05 21:23 37.97041 -107.97932 11622 ft 227 kts 285°
2026-05-05 21:24 37.97707 -107.99737 11632 ft 229 kts 303°
2026-05-05 21:24 37.98755 -108.01308 11650 ft 233 kts 308°
2026-05-05 21:24 37.99851 -108.02825 11650 ft 232 kts 308°
2026-05-05 21:24 38.00956 -108.04323 11650 ft 232 kts 308°
2026-05-05 21:25 38.02039 -108.05805 11670 ft 231 kts 309°
2026-05-05 21:25 38.03135 -108.07320 11682 ft 232 kts 309°
2026-05-05 21:25 38.04238 -108.08826 11692 ft 232 kts 308°
2026-05-05 21:25 38.05346 -108.10323 11676 ft 231 kts 308°
2026-05-05 21:26 38.06456 -108.11832 11686 ft 231 kts 309°
2026-05-05 21:26 38.07544 -108.13317 11684 ft 231 kts 309°
2026-05-05 21:26 38.08648 -108.14835 11678 ft 233 kts 308°
2026-05-05 21:26 38.09641 -108.16407 11694 ft 217 kts 293°
2026-05-05 21:27 38.09963 -108.18125 11683 ft 186 kts 266°
2026-05-05 21:27 38.09680 -108.19644 11686 ft 174 kts 245°
2026-05-05 21:27 38.09003 -108.20913 11688 ft 174 kts 227°
2026-05-05 21:27 38.08069 -108.21914 11691 ft 175 kts 219°
2026-05-05 21:28 38.07099 -108.22861 11693 ft 175 kts 220°
2026-05-05 21:28 38.06115 -108.23757 11695 ft 176 kts 210°
2026-05-05 21:28 38.04917 -108.24113 11690 ft 182 kts 182°
2026-05-05 21:28 38.03690 -108.23598 11687 ft 192 kts 149°
2026-05-05 21:29 38.02871 -108.22223 11689 ft 201 kts 117°
2026-05-05 21:29 38.02382 -108.20547 11697 ft 203 kts 114°
2026-05-05 21:29 38.01890 -108.18877 11700 ft 203 kts 115°
2026-05-05 21:29 38.01376 -108.17197 11702 ft 203 kts 115°
2026-05-05 21:30 38.00864 -108.15528 11695 ft 204 kts 115°
2026-05-05 21:30 38.00345 -108.13837 11690 ft 206 kts 116°
2026-05-05 21:30 37.99849 -108.12116 11682 ft 207 kts 112°
2026-05-05 21:30 37.99468 -108.10362 11681 ft 207 kts 107°
2026-05-05 21:31 37.99107 -108.08604 11670 ft 207 kts 109°
2026-05-05 21:31 37.98734 -108.06819 11657 ft 208 kts 108°
2026-05-05 21:31 37.98358 -108.05090 11617 ft 201 kts 113°
2026-05-05 21:31 37.97545 -108.03726 11612 ft 190 kts 147°
2026-05-05 21:32 37.96458 -108.02721 11665 ft 195 kts 150°
2026-05-05 21:32 37.95348 -108.01719 11656 ft 197 kts 150°
2026-05-05 21:32 37.94228 -108.00706 11635 ft 197 kts 144°
2026-05-05 21:32 37.93518 -107.99188 11601 ft 206 kts 107°
2026-05-05 21:33 37.93224 -107.97430 11654 ft 199 kts 104°
2026-05-05 21:33 37.92940 -107.95753 11646 ft 189 kts 104°
2026-05-05 21:33 37.92670 -107.94144 11640 ft 184 kts 104°
2026-05-05 21:33 37.92404 -107.92567 11638 ft 182 kts 104°
2026-05-05 21:34 37.92172 -107.90972 11568 ft 183 kts 99°
2026-05-05 21:34 37.92137 -107.89359 11342 ft 187 kts 87°
2026-05-05 21:34 37.92470 -107.87798 11041 ft 183 kts 58°
2026-05-05 21:34 37.93343 -107.86691 10525 ft 175 kts 23°
2026-05-05 21:35 37.94424 -107.86623 9986 ft 149 kts 323°
2026-05-05 21:35 37.94821 -107.87646 9503 ft 136 kts 268°
2026-05-05 21:35 37.94936 -107.88766 9247 ft 125 kts 283°
2026-05-05 21:35 37.95178 -107.89903 9112 ft 135 kts 284°
2026-05-05 21:36 37.95383 -107.90887 9049 ft 87 kts 284°
2026-05-05 21:36 37.95494 -107.91414 9056 ft 40 kts 286°
2026-05-05 21:36 37.95549 -107.91677 9067 ft 20 kts 285°
2026-05-05 21:36 37.95560 -107.91747 9069 ft 1 kts 330°
2026-05-05 21:37 37.95563 -107.91715 9068 ft 9 kts 107°
2026-05-05 21:37 37.95534 -107.91585 9064 ft 20 kts 105°
2026-05-05 21:37 37.95486 -107.91361 9054 ft 31 kts 105°
2026-05-05 21:37 37.95419 -107.91059 9047 ft 39 kts 105°
2026-05-05 21:38 37.95346 -107.90706 9054 ft 42 kts 104°
2026-05-05 21:38 37.95277 -107.90376 9070 ft 31 kts 104°
2026-05-05 21:38 37.95237 -107.90179 9080 ft 10 kts 101°
2026-05-05 21:38 37.95292 -107.90126 9084 ft 10 kts 13°
2026-05-05 21:39 37.95345 -107.90151 9083 ft 12 kts 283°
2026-05-05 21:39 37.95367 -107.90265 9077 ft 11 kts 285°
2026-05-05 21:39 37.95403 -107.90311 9076 ft 8 kts 19°
2026-05-05 21:39 37.95414 -107.90288 9077 ft 3 kts 101°